| time (UTC) | temp F | wind direction | speed MPH | gust MPH | rain 1hr in | rain 24hr in | rain mn in | humidity % | barometer mb |
| 20260508015753 | 54 | 180 | 0.0 | 0.0 | 0.00 | 0.00 | 0.00 | 99 | 1025.7 |
| 20260508015250 | 54 | 192 | 2.0 | 2.0 | 0.00 | 0.00 | 0.00 | 99 | 1025.6 |
| 20260508014747 | 55 | 209 | 0.0 | 2.0 | 0.00 | 0.00 | 0.00 | 99 | 1025.7 |
| 20260508014244 | 55 | 229 | 0.0 | 2.0 | 0.00 | 0.00 | 0.00 | 99 | 1025.5 |
| 20260508013739 | 54 | 285 | 0.0 | 0.0 | 0.00 | 0.00 | 0.00 | 99 | 1025.1 |
| 20260508013236 | 55 | 166 | 0.0 | 1.0 | 0.00 | 0.00 | 0.00 | 99 | 1025.2 |
| 20260508012734 | 55 | 111 | 0.0 | 0.0 | 0.00 | 0.00 | 0.00 | 99 | 1025.1 |
| 20260508012230 | 55 | 111 | 0.0 | 1.0 | 0.00 | 0.00 | 0.00 | 99 | 1024.7 |
| 20260508011729 | 55 | 220 | 0.0 | 0.0 | 0.00 | 0.00 | 0.00 | 99 | 1025.1 |
| 20260508011226 | 55 | 220 | 0.0 | 2.0 | 0.00 | 0.00 | 0.00 | 99 | 1025.0 |
| 20260508010722 | 55 | 340 | 0.0 | 0.0 | 0.00 | 0.00 | 0.00 | 99 | 1025.1 |
| 20260508010220 | 55 | 297 | 0.0 | 0.0 | 0.00 | 0.00 | 0.00 | 99 | 1025.2 |
| 20260508005717 | 55 | 262 | 0.0 | 0.0 | 0.00 | 0.00 | 0.00 | 99 | 1025.0 |
| 20260508005214 | 55 | 15 | 0.0 | 2.0 | 0.00 | 0.00 | 0.00 | 99 | 1024.9 |
| 20260508004710 | 55 | 346 | 0.0 | 0.0 | 0.00 | 0.00 | 0.00 | 99 | 1025.0 |
| 20260508004206 | 55 | 243 | 0.0 | 0.0 | 0.00 | 0.00 | 0.00 | 99 | 1024.9 |
| 20260508003703 | 55 | 261 | 0.0 | 0.0 | 0.00 | 0.00 | 0.00 | 99 | 1024.8 |
| 20260508003200 | 55 | 320 | 0.0 | 0.0 | 0.00 | 0.00 | 0.00 | 99 | 1024.7 |
| 20260508002656 | 55 | 106 | 1.0 | 2.0 | 0.00 | 0.00 | 0.00 | 99 | 1024.6 |
| 20260508002155 | 55 | 77 | 0.0 | 2.0 | 0.00 | 0.00 | 0.00 | 99 | 1025.0 |
| 20260508001650 | 55 | 97 | 0.0 | 0.0 | 0.00 | 0.00 | 0.00 | 99 | 1024.4 |
| 20260508001146 | 56 | 146 | 2.0 | 2.0 | 0.00 | 0.00 | 0.00 | 99 | 1024.4 |
| 20260508000642 | 55 | 117 | 0.0 | 3.0 | 0.00 | 0.00 | 0.00 | 99 | 1024.4 |
| 20260508000139 | 55 | 106 | 0.0 | 1.0 | 0.00 | 0.00 | 0.00 | 99 | 1024.5 |
| 20260507235636 | 55 | 99 | 0.0 | 2.0 | 0.00 | 0.00 | 0.00 | 99 | 1024.4 |
| 20260507235133 | 56 | 127 | 0.0 | 2.0 | 0.00 | 0.00 | 0.00 | 99 | 1024.6 |
| 20260507234630 | 56 | 90 | 0.0 | 2.0 | 0.00 | 0.00 | 0.00 | 99 | 1024.4 |
| 20260507234126 | 56 | 328 | 0.0 | 2.0 | 0.00 | 0.00 | 0.00 | 99 | 1024.1 |
| 20260507233623 | 56 | 66 | 0.0 | 2.0 | 0.00 | 0.00 | 0.00 | 99 | 1024.2 |
| 20260507233122 | 56 | 84 | 0.0 | 2.0 | 0.00 | 0.00 | 0.00 | 99 | 1024.4 |
| 20260507232618 | 56 | 111 | 0.0 | 0.0 | 0.00 | 0.00 | 0.00 | 99 | 1024.2 |
| 20260507232115 | 56 | 114 | 0.0 | 1.0 | 0.00 | 0.00 | 0.00 | 99 | 1024.0 |
| 20260507231611 | 56 | 102 | 0.0 | 3.0 | 0.00 | 0.00 | 0.00 | 99 | 1023.9 |
| 20260507231109 | 56 | 157 | 0.0 | 2.0 | 0.00 | 0.00 | 0.00 | 99 | 1023.6 |
| 20260507230605 | 56 | 53 | 3.0 | 5.0 | 0.00 | 0.00 | 0.00 | 99 | 1023.5 |
| 20260507225557 | 56 | 195 | 0.0 | 2.0 | 0.00 | 0.00 | 0.00 | 99 | 1023.7 |
| 20260507225053 | 56 | 122 | 3.0 | 4.0 | 0.00 | 0.00 | 0.00 | 98 | 1023.4 |
| 20260507224549 | 56 | 95 | 2.0 | 3.0 | 0.00 | 0.00 | 0.00 | 99 | 1023.5 |
| 20260507224046 | 56 | 131 | 2.0 | 4.0 | 0.00 | 0.00 | 0.00 | 98 | 1023.4 |
| 20260507223542 | 56 | 169 | 0.0 | 4.0 | 0.00 | 0.00 | 0.00 | 98 | 1023.7 |
| 20260507223040 | 56 | 173 | 1.0 | 6.0 | 0.00 | 0.00 | 0.00 | 98 | 1023.5 |
| 20260507222537 | 56 | 20 | 1.0 | 5.0 | 0.00 | 0.00 | 0.00 | 98 | 1023.4 |
| 20260507222033 | 56 | 250 | 0.0 | 7.0 | 0.00 | 0.00 | 0.00 | 97 | 1023.5 |
| 20260507221529 | 56 | 120 | 0.0 | 6.0 | 0.00 | 0.00 | 0.00 | 97 | 1023.6 |
| 20260507221026 | 56 | 157 | 0.0 | 3.0 | 0.00 | 0.00 | 0.00 | 99 | 1023.8 |
| 20260507220523 | 56 | 87 | 6.0 | 9.0 | 0.00 | 0.00 | 0.00 | 97 | 1023.9 |
| 20260507220021 | 56 | 109 | 3.0 | 5.0 | 0.00 | 0.00 | 0.00 | 98 | 1024.1 |
| 20260507215517 | 56 | 343 | 3.0 | 4.0 | 0.00 | 0.00 | 0.00 | 98 | 1023.7 |
| 20260507215015 | 56 | 173 | 0.0 | 3.0 | 0.00 | 0.00 | 0.00 | 99 | 1023.9 |
| 20260507214511 | 56 | 270 | 3.0 | 5.0 | 0.00 | 0.00 | 0.00 | 98 | 1023.2 |
| 20260507214007 | 56 | 83 | 7.0 | 7.0 | 0.00 | 0.00 | 0.00 | 98 | 1023.4 |
| 20260507213504 | 56 | 43 | 4.0 | 7.0 | 0.00 | 0.00 | 0.00 | 99 | 1023.4 |
| 20260507213001 | 56 | 82 | 4.0 | 6.0 | 0.00 | 0.00 | 0.00 | 98 | 1023.5 |
| 20260507212457 | 56 | 76 | 6.0 | 7.0 | 0.00 | 0.00 | 0.00 | 98 | 1023.5 |
| 20260507211954 | 57 | 78 | 0.0 | 6.0 | 0.00 | 0.00 | 0.00 | 98 | 1023.5 |
| 20260507211450 | 57 | 69 | 1.0 | 4.0 | 0.00 | 0.00 | 0.00 | 99 | 1023.2 |
| 20260507210947 | 57 | 124 | 2.0 | 4.0 | 0.00 | 0.00 | 0.00 | 98 | 1023.4 |
| 20260507210444 | 57 | 206 | 1.0 | 5.0 | 0.00 | 0.00 | 0.00 | 99 | 1023.4 |
| 20260507205941 | 56 | 80 | 2.0 | 6.0 | 0.00 | 0.00 | 0.00 | 99 | 1023.6 |
| 20260507205438 | 56 | 209 | 0.0 | 6.0 | 0.00 | 0.00 | 0.00 | 99 | 1023.5 |
| 20260507204934 | 56 | 20 | 6.0 | 6.0 | 0.00 | 0.00 | 0.00 | 99 | 1023.1 |
| 20260507204430 | 56 | 105 | 2.0 | 7.0 | 0.00 | 0.00 | 0.00 | 99 | 1023.1 |
| 20260507203928 | 56 | 23 | 5.0 | 6.0 | 0.00 | 0.00 | 0.00 | 99 | 1023.1 |
| 20260507203426 | 56 | 257 | 2.0 | 5.0 | 0.00 | 0.00 | 0.00 | 99 | 1023.0 |
| 20260507202922 | 56 | 21 | 2.0 | 9.0 | 0.00 | 0.00 | 0.00 | 99 | 1022.9 |
| 20260507202419 | 56 | 52 | 5.0 | 6.0 | 0.00 | 0.00 | 0.00 | 99 | 1023.2 |
| 20260507201914 | 56 | 90 | 3.0 | 3.0 | 0.00 | 0.00 | 0.00 | 99 | 1023.1 |
| 20260507201410 | 56 | 77 | 0.0 | 6.0 | 0.00 | 0.00 | 0.00 | 99 | 1023.0 |
| 20260507200907 | 56 | 312 | 0.0 | 6.0 | 0.00 | 0.00 | 0.00 | 99 | 1023.1 |
| 20260507200403 | 56 | 103 | 1.0 | 6.0 | 0.00 | 0.00 | 0.00 | 99 | 1023.0 |
| 20260507195858 | 56 | 80 | 5.0 | 8.0 | 0.00 | 0.00 | 0.00 | 99 | 1023.1 |
| 20260507195356 | 56 | 66 | 2.0 | 8.0 | 0.00 | 0.00 | 0.00 | 99 | 1023.0 |
| 20260507194853 | 57 | 83 | 3.0 | 4.0 | 0.00 | 0.00 | 0.00 | 99 | 1022.8 |
| 20260507194349 | 57 | 60 | 0.0 | 6.0 | 0.00 | 0.00 | 0.00 | 99 | 1022.9 |
| 20260507193846 | 57 | 29 | 0.0 | 7.0 | 0.00 | 0.00 | 0.00 | 99 | 1023.1 |
| 20260507193343 | 56 | 39 | 8.0 | 15.0 | 0.00 | 0.00 | 0.00 | 99 | 1022.9 |
| 20260507192839 | 57 | 88 | 5.0 | 6.0 | 0.00 | 0.00 | 0.00 | 99 | 1023.3 |
| 20260507192336 | 57 | 90 | 0.0 | 4.0 | 0.00 | 0.00 | 0.00 | 99 | 1023.2 |
| 20260507191832 | 57 | 330 | 2.0 | 3.0 | 0.00 | 0.00 | 0.00 | 99 | 1023.3 |
| 20260507191328 | 56 | 5 | 3.0 | 7.0 | 0.00 | 0.00 | 0.00 | 99 | 1023.3 |
| 20260507190826 | 57 | 35 | 1.0 | 5.0 | 0.00 | 0.00 | 0.00 | 99 | 1023.4 |
| 20260507190324 | 56 | 65 | 2.0 | 8.0 | 0.00 | 0.00 | 0.00 | 99 | 1023.2 |
| 20260507185823 | 56 | 205 | 0.0 | 4.0 | 0.00 | 0.00 | 0.00 | 99 | 1023.2 |
| 20260507185319 | 56 | 270 | 2.0 | 4.0 | 0.00 | 0.00 | 0.00 | 99 | 1023.0 |
| 20260507184816 | 57 | 98 | 3.0 | 5.0 | 0.00 | 0.00 | 0.00 | 99 | 1023.1 |
| 20260507184314 | 56 | 3 | 0.0 | 5.0 | 0.00 | 0.00 | 0.00 | 99 | 1022.9 |
| 20260507183811 | 56 | 56 | 5.0 | 5.0 | 0.00 | 0.00 | 0.00 | 99 | 1023.0 |
| 20260507183308 | 57 | 209 | 2.0 | 2.0 | 0.00 | 0.00 | 0.00 | 99 | 1023.2 |
| 20260507182805 | 57 | 255 | 0.0 | 3.0 | 0.00 | 0.00 | 0.00 | 99 | 1023.4 |
| 20260507182300 | 57 | 128 | 3.0 | 5.0 | 0.00 | 0.00 | 0.00 | 99 | 1023.0 |
| 20260507181757 | 57 | 101 | 2.0 | 6.0 | 0.00 | 0.00 | 0.00 | 99 | 1022.7 |
| 20260507181253 | 57 | 83 | 3.0 | 14.0 | 0.00 | 0.00 | 0.00 | 99 | 1022.6 |
| 20260507180750 | 57 | 83 | 4.0 | 8.0 | 0.00 | 0.00 | 0.00 | 99 | 1022.7 |
| 20260507180247 | 57 | 86 | 3.0 | 3.0 | 0.00 | 0.00 | 0.00 | 99 | 1022.7 |
| 20260507175742 | 57 | 90 | 0.0 | 7.0 | 0.00 | 0.00 | 0.00 | 99 | 1022.8 |
| 20260507175240 | 57 | 212 | 0.0 | 2.0 | 0.00 | 0.00 | 0.00 | 99 | 1022.9 |
| 20260507174737 | 57 | 50 | 3.0 | 6.0 | 0.00 | 0.00 | 0.00 | 99 | 1022.5 |
| 20260507174235 | 57 | 90 | 0.0 | 8.0 | 0.00 | 0.00 | 0.00 | 99 | 1022.7 |
| 20260507173732 | 57 | 116 | 5.0 | 6.0 | 0.00 | 0.00 | 0.00 | 99 | 1023.6 |
| 20260507173229 | 57 | 3 | 4.0 | 9.0 | 0.00 | 0.00 | 0.00 | 99 | 1023.6 |
| 20260507172726 | 57 | 75 | 2.0 | 5.0 | 0.00 | 0.00 | 0.00 | 99 | 1023.0 |
| 20260507172223 | 57 | 11 | 6.0 | 7.0 | 0.00 | 0.00 | 0.00 | 99 | 1022.8 |
| 20260507171722 | 58 | 238 | 0.0 | 4.0 | 0.00 | 0.00 | 0.00 | 99 | 1022.9 |
| 20260507171220 | 58 | 32 | 2.0 | 3.0 | 0.00 | 0.00 | 0.00 | 99 | 1022.6 |
| 20260507170717 | 58 | 14 | 3.0 | 5.0 | 0.00 | 0.00 | 0.00 | 99 | 1022.1 |
| 20260507170214 | 58 | 15 | 0.0 | 6.0 | 0.00 | 0.00 | 0.00 | 99 | 1022.5 |
| 20260507165709 | 58 | 352 | 2.0 | 8.0 | 0.00 | 0.00 | 0.00 | 99 | 1022.3 |
| 20260507165206 | 59 | 154 | 0.0 | 3.0 | 0.00 | 0.00 | 0.00 | 99 | 1021.7 |
| 20260507164702 | 59 | 47 | 3.0 | 10.0 | 0.00 | 0.00 | 0.00 | 99 | 1022.5 |
| 20260507164159 | 60 | 61 | 0.0 | 6.0 | 0.00 | 0.00 | 0.00 | 99 | 1022.4 |
| 20260507163656 | 62 | 270 | 2.0 | 5.0 | 0.00 | 0.00 | 0.00 | 99 | 1022.0 |
| 20260507163154 | 67 | 74 | 3.0 | 3.0 | 0.00 | 0.00 | 0.00 | 99 | 1021.9 |
| 20260507162650 | 67 | 90 | 0.0 | 2.0 | 0.00 | 0.00 | 0.00 | 99 | 1022.5 |
| 20260507162146 | 67 | 98 | 0.0 | 1.0 | 0.00 | 0.00 | 0.00 | 99 | 1022.5 |
| 20260507161642 | 67 | 14 | 0.0 | 1.0 | 0.00 | 0.00 | 0.00 | 99 | 1022.6 |
| 20260507161139 | 67 | 270 | 0.0 | 3.0 | 0.00 | 0.00 | 0.00 | 99 | 1023.1 |
| 20260507160635 | 67 | 251 | 1.0 | 2.0 | 0.00 | 0.00 | 0.00 | 99 | 1023.1 |
| 20260507160132 | 67 | 262 | 0.0 | 2.0 | 0.00 | 0.00 | 0.00 | 99 | 1023.0 |
| 20260507155628 | 67 | 195 | 0.0 | 1.0 | 0.00 | 0.00 | 0.00 | 99 | 1023.0 |
| 20260507155125 | 67 | 270 | 1.0 | 4.0 | 0.00 | 0.00 | 0.00 | 99 | 1023.1 |
| 20260507154621 | 67 | 209 | 0.0 | 0.0 | 0.00 | 0.00 | 0.00 | 99 | 1022.9 |
| 20260507154119 | 67 | 270 | 0.0 | 2.0 | 0.00 | 0.00 | 0.00 | 99 | 1023.0 |
| 20260507153615 | 66 | 86 | 0.0 | 4.0 | 0.00 | 0.00 | 0.00 | 99 | 1022.7 |
| 20260507153112 | 67 | 339 | 2.0 | 3.0 | 0.00 | 0.00 | 0.00 | 99 | 1022.6 |
| 20260507152608 | 68 | 270 | 0.0 | 0.0 | 0.00 | 0.00 | 0.00 | 99 | 1022.6 |
| 20260507152104 | 68 | 270 | 0.0 | 1.0 | 0.00 | 0.00 | 0.00 | 99 | 1022.6 |
| 20260507151600 | 68 | 262 | 0.0 | 0.0 | 0.00 | 0.00 | 0.00 | 99 | 1022.5 |
| 20260507151057 | 68 | 254 | 0.0 | 0.0 | 0.00 | 0.00 | 0.00 | 99 | 1022.9 |
| 20260507150555 | 68 | 279 | 0.0 | 1.0 | 0.00 | 0.00 | 0.00 | 99 | 1023.0 |
| 20260507150051 | 67 | 254 | 1.0 | 2.0 | 0.00 | 0.00 | 0.00 | 99 | 1022.8 |
| 20260507145546 | 67 | 240 | 0.0 | 1.0 | 0.00 | 0.00 | 0.00 | 99 | 1022.8 |
| 20260507145044 | 67 | 90 | 0.0 | 1.0 | 0.00 | 0.00 | 0.00 | 99 | 1022.6 |
| 20260507144540 | 68 | 111 | 0.0 | 1.0 | 0.00 | 0.00 | 0.00 | 99 | 1022.6 |
| 20260507144038 | 67 | 90 | 0.0 | 0.0 | 0.00 | 0.00 | 0.00 | 99 | 1022.7 |
| 20260507143535 | 67 | 212 | 2.0 | 2.0 | 0.00 | 0.00 | 0.00 | 99 | 1022.8 |
| 20260507143033 | 67 | 240 | 0.0 | 0.0 | 0.00 | 0.00 | 0.00 | 99 | 1022.6 |
| 20260507142527 | 67 | 255 | 0.0 | 0.0 | 0.00 | 0.00 | 0.00 | 99 | 1022.7 |
| 20260507142025 | 67 | 270 | 0.0 | 0.0 | 0.00 | 0.00 | 0.00 | 99 | 1022.6 |
| 20260507141520 | 67 | 270 | 1.0 | 2.0 | 0.00 | 0.00 | 0.00 | 99 | 1022.9 |
| 20260507141017 | 67 | 246 | 0.0 | 0.0 | 0.00 | 0.00 | 0.00 | 99 | 1022.8 |
| 20260507140515 | 67 | 261 | 0.0 | 2.0 | 0.00 | 0.00 | 0.00 | 99 | 1022.9 |
| 20260507140012 | 67 | 180 | 0.0 | 2.0 | 0.00 | 0.00 | 0.00 | 99 | 1022.6 |
| 20260507135508 | 67 | 261 | 0.0 | 1.0 | 0.00 | 0.00 | 0.00 | 99 | 1022.6 |
| 20260507135006 | 67 | 279 | 0.0 | 1.0 | 0.00 | 0.00 | 0.00 | 99 | 1022.9 |
| 20260507134502 | 67 | 194 | 0.0 | 1.0 | 0.00 | 0.00 | 0.00 | 99 | 1023.1 |
| 20260507133958 | 67 | 230 | 0.0 | 3.0 | 0.00 | 0.00 | 0.00 | 99 | 1023.1 |
| 20260507133454 | 66 | 240 | 0.0 | 4.0 | 0.00 | 0.00 | 0.00 | 99 | 1023.4 |
| 20260507132953 | 67 | 307 | 0.0 | 2.0 | 0.00 | 0.00 | 0.00 | 99 | 1023.2 |
| 20260507132449 | 66 | 289 | 1.0 | 2.0 | 0.00 | 0.00 | 0.00 | 99 | 1023.4 |
| 20260507131945 | 66 | 254 | 1.0 | 3.0 | 0.00 | 0.00 | 0.00 | 99 | 1023.4 |
| 20260507131442 | 66 | 270 | 0.0 | 2.0 | 0.00 | 0.00 | 0.00 | 99 | 1023.5 |
| 20260507130939 | 66 | 206 | 0.0 | 2.0 | 0.00 | 0.00 | 0.00 | 99 | 1023.2 |
| 20260507130436 | 66 | 270 | 0.0 | 0.0 | 0.00 | 0.00 | 0.00 | 99 | 1023.3 |
| 20260507125935 | 66 | 188 | 0.0 | 2.0 | 0.00 | 0.00 | 0.00 | 99 | 1023.2 |
| 20260507125433 | 66 | 259 | 2.0 | 2.0 | 0.00 | 0.00 | 0.00 | 99 | 1023.3 |
| 20260507124930 | 66 | 131 | 0.0 | 2.0 | 0.00 | 0.00 | 0.00 | 99 | 1023.3 |
| 20260507124426 | 66 | 246 | 1.0 | 2.0 | 0.00 | 0.00 | 0.00 | 99 | 1023.4 |
| 20260507123925 | 66 | 249 | 0.0 | 2.0 | 0.00 | 0.00 | 0.00 | 99 | 1023.5 |
| 20260507123422 | 66 | 234 | 0.0 | 1.0 | 0.00 | 0.00 | 0.00 | 99 | 1023.3 |
| 20260507122918 | 66 | 234 | 1.0 | 1.0 | 0.00 | 0.00 | 0.00 | 99 | 1023.4 |
| 20260507122413 | 66 | 270 | 0.0 | 0.0 | 0.00 | 0.00 | 0.00 | 99 | 1023.4 |
| 20260507121910 | 66 | 261 | 0.0 | 0.0 | 0.00 | 0.00 | 0.00 | 99 | 1023.1 |
| 20260507121405 | 65 | 99 | 0.0 | 0.0 | 0.00 | 0.00 | 0.00 | 99 | 1023.1 |
| 20260507120902 | 66 | 166 | 0.0 | 0.0 | 0.00 | 0.00 | 0.00 | 99 | 1023.2 |
| 20260507120358 | 65 | 166 | 0.0 | 1.0 | 0.00 | 0.00 | 0.00 | 99 | 1023.3 |
| 20260507115854 | 65 | 131 | 0.0 | 2.0 | 0.00 | 0.00 | 0.00 | 99 | 1023.3 |
| 20260507115350 | 65 | 270 | 0.0 | 0.0 | 0.00 | 0.00 | 0.00 | 99 | 1023.5 |
| 20260507114846 | 65 | 234 | 0.0 | 1.0 | 0.00 | 0.00 | 0.00 | 99 | 1023.3 |
| 20260507114343 | 65 | 131 | 0.0 | 0.0 | 0.00 | 0.00 | 0.00 | 99 | 1023.1 |
| 20260507113841 | 65 | 151 | 0.0 | 0.0 | 0.00 | 0.00 | 0.00 | 99 | 1023.7 |
| 20260507113337 | 65 | 151 | 0.0 | 1.0 | 0.00 | 0.00 | 0.00 | 99 | 1023.6 |
| 20260507112835 | 65 | 151 | 2.0 | 2.0 | 0.00 | 0.00 | 0.00 | 99 | 1023.8 |
| 20260507112332 | 65 | 246 | 0.0 | 0.0 | 0.00 | 0.00 | 0.00 | 99 | 1023.7 |
| 20260507111830 | 65 | 243 | 0.0 | 3.0 | 0.00 | 0.00 | 0.00 | 99 | 1023.6 |
| 20260507111326 | 65 | 257 | 0.0 | 0.0 | 0.00 | 0.00 | 0.00 | 99 | 1023.5 |
| 20260507110822 | 65 | 270 | 0.0 | 0.0 | 0.00 | 0.00 | 0.00 | 99 | 1023.7 |
| 20260507110319 | 65 | 254 | 0.0 | 1.0 | 0.00 | 0.00 | 0.00 | 99 | 1023.6 |
| 20260507105816 | 64 | 215 | 0.0 | 0.0 | 0.00 | 0.00 | 0.00 | 99 | 1023.6 |
| 20260507105312 | 64 | 236 | 0.0 | 3.0 | 0.00 | 0.00 | 0.00 | 99 | 1023.4 |
| 20260507104809 | 64 | 270 | 0.0 | 0.0 | 0.00 | 0.00 | 0.00 | 99 | 1023.3 |
| 20260507104306 | 64 | 261 | 0.0 | 0.0 | 0.00 | 0.00 | 0.00 | 99 | 1023.5 |
| 20260507103802 | 64 | 261 | 0.0 | 1.0 | 0.00 | 0.00 | 0.00 | 99 | 1023.3 |
| 20260507103258 | 64 | 270 | 0.0 | 0.0 | 0.00 | 0.00 | 0.00 | 99 | 1023.3 |
| 20260507102755 | 64 | 0 | 0.0 | 1.0 | 0.00 | 0.00 | 0.00 | 99 | 1023.2 |
| 20260507102252 | 64 | 195 | 0.0 | 0.0 | 0.00 | 0.00 | 0.00 | 99 | 1023.1 |
| 20260507101748 | 64 | 195 | 0.0 | 0.0 | 0.00 | 0.00 | 0.00 | 99 | 1023.0 |
| 20260507101243 | 64 | 180 | 0.0 | 0.0 | 0.00 | 0.00 | 0.00 | 99 | 1023.0 |
| 20260507100740 | 64 | 194 | 0.0 | 1.0 | 0.00 | 0.00 | 0.00 | 99 | 1023.2 |
| 20260507100238 | 64 | 246 | 0.0 | 1.0 | 0.00 | 0.00 | 0.00 | 99 | 1023.3 |
| 20260507095736 | 64 | 262 | 0.0 | 0.0 | 0.00 | 0.00 | 0.00 | 99 | 1023.4 |
| 20260507095232 | 64 | 255 | 0.0 | 1.0 | 0.00 | 0.00 | 0.00 | 99 | 1023.2 |
| 20260507094729 | 64 | 270 | 0.0 | 0.0 | 0.00 | 0.00 | 0.00 | 99 | 1023.2 |
| 20260507094226 | 64 | 203 | 0.0 | 0.0 | 0.00 | 0.00 | 0.00 | 99 | 1023.1 |
| 20260507093723 | 64 | 66 | 0.0 | 1.0 | 0.00 | 0.00 | 0.00 | 99 | 1023.4 |
| 20260507093222 | 64 | 263 | 0.0 | 2.0 | 0.00 | 0.00 | 0.00 | 99 | 1023.3 |
| 20260507092719 | 64 | 180 | 0.0 | 1.0 | 0.00 | 0.00 | 0.00 | 99 | 1023.2 |
| 20260507092215 | 64 | 180 | 0.0 | 0.0 | 0.00 | 0.00 | 0.00 | 99 | 1023.2 |
| 20260507091711 | 64 | 200 | 0.0 | 1.0 | 0.00 | 0.00 | 0.00 | 99 | 1023.2 |
| 20260507091208 | 64 | 188 | 0.0 | 0.0 | 0.00 | 0.00 | 0.00 | 99 | 1023.3 |
| 20260507090703 | 64 | 188 | 0.0 | 0.0 | 0.00 | 0.00 | 0.00 | 99 | 1023.2 |
| 20260507090200 | 64 | 173 | 0.0 | 1.0 | 0.00 | 0.00 | 0.00 | 99 | 1023.3 |
| 20260507085657 | 64 | 203 | 0.0 | 2.0 | 0.00 | 0.00 | 0.00 | 99 | 1023.6 |
| 20260507085154 | 64 | 172 | 0.0 | 3.0 | 0.00 | 0.00 | 0.00 | 99 | 1023.4 |
| 20260507084651 | 64 | 200 | 0.0 | 2.0 | 0.00 | 0.00 | 0.00 | 99 | 1023.5 |
| 20260507084148 | 65 | 203 | 0.0 | 2.0 | 0.00 | 0.00 | 0.00 | 99 | 1023.5 |
| 20260507083644 | 64 | 173 | 0.0 | 2.0 | 0.00 | 0.00 | 0.00 | 99 | 1023.4 |
| 20260507083141 | 65 | 165 | 0.0 | 1.0 | 0.00 | 0.00 | 0.00 | 99 | 1023.3 |
| 20260507082637 | 64 | 349 | 0.0 | 2.0 | 0.00 | 0.00 | 0.00 | 99 | 1023.8 |
| 20260507082134 | 64 | 180 | 0.0 | 3.0 | 0.00 | 0.00 | 0.00 | 99 | 1024.0 |
| 20260507081631 | 65 | 180 | 0.0 | 1.0 | 0.00 | 0.00 | 0.00 | 99 | 1023.9 |
| 20260507081127 | 64 | 208 | 0.0 | 2.0 | 0.00 | 0.00 | 0.00 | 99 | 1024.0 |
| 20260507080623 | 64 | 203 | 0.0 | 0.0 | 0.00 | 0.00 | 0.00 | 99 | 1023.7 |
| 20260507080120 | 64 | 209 | 0.0 | 1.0 | 0.00 | 0.00 | 0.00 | 99 | 1023.7 |
| 20260507075620 | 64 | 203 | 0.0 | 1.0 | 0.00 | 0.00 | 0.00 | 99 | 1023.5 |
| 20260507075116 | 65 | 157 | 0.0 | 2.0 | 0.00 | 0.00 | 0.00 | 99 | 1023.5 |
| 20260507074613 | 64 | 172 | 0.0 | 2.0 | 0.00 | 0.00 | 0.00 | 99 | 1023.9 |
| 20260507074112 | 65 | 200 | 0.0 | 2.0 | 0.00 | 0.00 | 0.00 | 99 | 1023.7 |
| 20260507073608 | 65 | 83 | 1.0 | 3.0 | 0.00 | 0.00 | 0.00 | 99 | 1024.0 |
| 20260507073104 | 65 | 180 | 0.0 | 2.0 | 0.00 | 0.00 | 0.00 | 99 | 1024.4 |
| 20260507072602 | 64 | 180 | 0.0 | 1.0 | 0.00 | 0.00 | 0.00 | 99 | 1024.2 |
| 20260507072059 | 65 | 186 | 0.0 | 0.0 | 0.00 | 0.00 | 0.00 | 99 | 1024.3 |
| 20260507071556 | 65 | 186 | 0.0 | 1.0 | 0.00 | 0.00 | 0.00 | 99 | 1024.1 |
| 20260507071052 | 65 | 203 | 0.0 | 1.0 | 0.00 | 0.00 | 0.00 | 99 | 1024.4 |
| 20260507070549 | 65 | 180 | 0.0 | 2.0 | 0.00 | 0.00 | 0.00 | 99 | 1024.4 |
| 20260507070046 | 65 | 233 | 0.0 | 2.0 | 0.00 | 0.00 | 0.00 | 99 | 1024.4 |
| 20260507065543 | 65 | 203 | 0.0 | 1.0 | 0.00 | 0.00 | 0.00 | 99 | 1024.3 |
| 20260507065040 | 65 | 111 | 0.0 | 1.0 | 0.00 | 0.00 | 0.00 | 99 | 1024.2 |
| 20260507064538 | 65 | 201 | 0.0 | 2.0 | 0.00 | 0.00 | 0.00 | 99 | 1024.8 |
| 20260507064036 | 65 | 173 | 0.0 | 1.0 | 0.00 | 0.00 | 0.00 | 99 | 1025.0 |
| 20260507063533 | 65 | 209 | 0.0 | 2.0 | 0.00 | 0.00 | 0.00 | 99 | 1025.2 |
| 20260507063030 | 65 | 206 | 0.0 | 2.0 | 0.00 | 0.00 | 0.00 | 99 | 1025.3 |
| 20260507062527 | 65 | 198 | 0.0 | 1.0 | 0.00 | 0.00 | 0.00 | 99 | 1025.2 |
| 20260507062025 | 65 | 203 | 0.0 | 2.0 | 0.00 | 0.00 | 0.00 | 99 | 1025.1 |
| 20260507061522 | 65 | 270 | 0.0 | 1.0 | 0.00 | 0.00 | 0.00 | 99 | 1024.6 |
| 20260507061020 | 65 | 180 | 0.0 | 1.0 | 0.00 | 0.00 | 0.00 | 99 | 1024.5 |
| 20260507060518 | 65 | 126 | 1.0 | 2.0 | 0.00 | 0.00 | 0.00 | 99 | 1024.5 |
| 20260507060014 | 65 | 240 | 0.0 | 1.0 | 0.00 | 0.00 | 0.00 | 99 | 1025.0 |
| 20260507055509 | 65 | 165 | 0.0 | 2.0 | 0.00 | 0.00 | 0.00 | 99 | 1025.0 |
| 20260507055005 | 65 | 186 | 1.0 | 2.0 | 0.00 | 0.00 | 0.00 | 99 | 1025.0 |
| 20260507054501 | 65 | 192 | 0.0 | 1.0 | 0.00 | 0.00 | 0.00 | 99 | 1025.0 |
| 20260507053959 | 65 | 188 | 0.0 | 0.0 | 0.00 | 0.00 | 0.00 | 99 | 1025.1 |
| 20260507053457 | 65 | 188 | 0.0 | 0.0 | 0.00 | 0.00 | 0.00 | 99 | 1025.2 |
| 20260507052954 | 65 | 180 | 2.0 | 2.0 | 0.00 | 0.00 | 0.00 | 99 | 1024.9 |
| 20260507052452 | 65 | 270 | 2.0 | 2.0 | 0.00 | 0.00 | 0.00 | 99 | 1024.9 |
| 20260507051949 | 65 | 19 | 0.0 | 3.0 | 0.00 | 0.00 | 0.00 | 99 | 1025.5 |
| 20260507051446 | 65 | 282 | 2.0 | 2.0 | 0.00 | 0.00 | 0.00 | 99 | 1025.2 |
| 20260507050943 | 65 | 113 | 3.0 | 3.0 | 0.00 | 0.00 | 0.00 | 99 | 1024.6 |
| 20260507050439 | 66 | 283 | 0.0 | 3.0 | 0.00 | 0.00 | 0.00 | 99 | 1025.3 |
| 20260507045937 | 66 | 276 | 0.0 | 2.0 | 0.00 | 0.00 | 0.00 | 99 | 1025.1 |
| 20260507045433 | 66 | 187 | 0.0 | 1.0 | 0.00 | 0.00 | 0.00 | 99 | 1024.8 |
| 20260507044930 | 66 | 220 | 0.0 | 3.0 | 0.00 | 0.00 | 0.00 | 99 | 1024.8 |
| 20260507044427 | 66 | 243 | 2.0 | 2.0 | 0.00 | 0.00 | 0.00 | 99 | 1025.0 |
| 20260507043923 | 66 | 195 | 0.0 | 3.0 | 0.00 | 0.00 | 0.00 | 99 | 1024.8 |
| 20260507043419 | 66 | 169 | 2.0 | 4.0 | 0.00 | 0.00 | 0.00 | 99 | 1025.7 |
| 20260507042916 | 66 | 202 | 2.0 | 3.0 | 0.00 | 0.00 | 0.00 | 99 | 1026.2 |
| 20260507042413 | 67 | 180 | 0.0 | 3.0 | 0.00 | 0.00 | 0.00 | 99 | 1026.5 |
| 20260507041908 | 67 | 270 | 3.0 | 5.0 | 0.00 | 0.00 | 0.00 | 99 | 1026.9 |
| 20260507041405 | 67 | 221 | 5.0 | 5.0 | 0.00 | 0.00 | 0.00 | 99 | 1026.9 |
| 20260507040903 | 67 | 215 | 3.0 | 4.0 | 0.00 | 0.00 | 0.00 | 99 | 1026.7 |
| 20260507040358 | 66 | 169 | 2.0 | 2.0 | 0.00 | 0.00 | 0.00 | 99 | 1026.7 |
| 20260507035854 | 66 | 255 | 0.0 | 2.0 | 0.00 | 0.00 | 0.00 | 99 | 1026.4 |
| 20260507035350 | 67 | 200 | 0.0 | 4.0 | 0.00 | 0.00 | 0.00 | 99 | 1026.3 |
| 20260507034848 | 66 | 276 | 2.0 | 2.0 | 0.00 | 0.00 | 0.00 | 99 | 1025.8 |
| 20260507034345 | 67 | 270 | 2.0 | 3.0 | 0.00 | 0.00 | 0.00 | 99 | 1025.7 |
| 20260507033843 | 67 | 315 | 2.0 | 3.0 | 0.00 | 0.00 | 0.00 | 99 | 1025.6 |
| 20260507033340 | 67 | 0 | 0.0 | 1.0 | 0.00 | 0.00 | 0.00 | 99 | 1025.1 |
| 20260507032837 | 67 | 254 | 0.0 | 1.0 | 0.00 | 0.00 | 0.00 | 99 | 1025.1 |
| 20260507032333 | 67 | 145 | 0.0 | 2.0 | 0.00 | 0.00 | 0.00 | 99 | 1025.5 |
| 20260507031830 | 67 | 266 | 2.0 | 3.0 | 0.00 | 0.00 | 0.00 | 99 | 1025.7 |
| 20260507031327 | 67 | 327 | 2.0 | 2.0 | 0.00 | 0.00 | 0.00 | 99 | 1025.7 |
| 20260507030823 | 68 | 263 | 1.0 | 5.0 | 0.00 | 0.00 | 0.00 | 99 | 1026.0 |
| 20260507030321 | 68 | 294 | 0.0 | 2.0 | 0.00 | 0.00 | 0.00 | 99 | 1025.6 |
| 20260507025817 | 68 | 289 | 0.0 | 3.0 | 0.00 | 0.00 | 0.00 | 97 | 1025.4 |
| 20260507025315 | 69 | 203 | 0.0 | 1.0 | 0.00 | 0.00 | 0.00 | 95 | 1025.1 |
| 20260507024813 | 69 | 263 | 3.0 | 5.0 | 0.00 | 0.00 | 0.00 | 93 | 1025.3 |
| 20260507024309 | 69 | 328 | 0.0 | 2.0 | 0.00 | 0.00 | 0.00 | 95 | 1025.2 |
| 20260507023805 | 69 | 209 | 0.0 | 0.0 | 0.00 | 0.00 | 0.00 | 96 | 1025.0 |
| 20260507023302 | 68 | 209 | 1.0 | 1.0 | 0.00 | 0.00 | 0.00 | 97 | 1024.8 |
| 20260507022759 | 68 | 209 | 0.0 | 0.0 | 0.00 | 0.00 | 0.00 | 97 | 1025.1 |
| 20260507022256 | 68 | 209 | 0.0 | 1.0 | 0.00 | 0.00 | 0.00 | 97 | 1024.9 |
| 20260507021752 | 68 | 254 | 0.0 | 0.0 | 0.00 | 0.00 | 0.00 | 97 | 1024.8 |
| 20260507021247 | 68 | 264 | 0.0 | 2.0 | 0.00 | 0.00 | 0.00 | 97 | 1024.8 |
| 20260507020746 | 68 | 188 | 0.0 | 0.0 | 0.00 | 0.00 | 0.00 | 97 | 1024.6 |
| 20260507020242 | 68 | 188 | 0.0 | 0.0 | 0.00 | 0.00 | 0.00 | 97 | 1024.7 |